STARLINK-1828, 46725

Orbit data source: Space-Track

STARLINK-1828, 46725 is a payload satellite owned by SpaceX/Seattle (US) in LEO that was launched on Sun, 18 Oct 2020 UTC via an FALCON 9 launch vehicle from the Air Force Eastern Test Range (AFETR). Payload-class satellites include a variety of spacecraft equipped with specific instruments for various scientific and technological missions. These include communications satellites like Starlink; space stations such as the ISS; scientific satellites like the Hubble; Earth observation satellites from companies like Planet Labs, Umbra, and HawkEye 360; GPS; miniature CubeSats for education and research; and military/defense satellites.

Loading next visibility...
Identifier
46725, 2020-073BH
Orbit
LEO
Country
Flag of USUS
Related business
Manufacturer
SpaceX/Seattle
Mission
Operational Commercial Communications
Bus & Motor
STARLINK, Unknown motor
Mass
260 kg wet, ~248 kg dry
Launch date (UTC)
2020-10-18 (5 years ago)
Launch vehicle
FALCON 9
Launch site
Air Force Eastern Test Range (AFETR)
Object type
Payload
Rocket body
Debris
Shape & HBR
Box + 1 Pan, 10.1 m
Radar Cross Section
13.562 m², Large (>1 m²)

Expand to show TLE details & history
Last TLE update: 8 hours ago

TLE from 8 hours ago
0 STARLINK-1828
1 46725U 20073BH  25352.33335648  .00053553  00000-0  28981-2 0  9999
2 46725  53.0536 261.6500 0001602 121.5033 148.7876 15.14150077  5649
Epoch: 2025-12-18T08:00Z
TLE epoch observation values (Epoch: 2025-12-18T08:00:01.999Z)
Latitude
-53.20371°
Longitude
-35.05016°
Altitude
543.005 km
Speed
7.59 km/s
True Right ascension
11h 28m 35s
True Declination
-53° 02' 01"
Sunlit
Object was in daylight at epoch
Visualization orbit readout
Latitude
Unknown
Longitude
Unknown
Altitude
Unknown
Speed
Unknown
Apparent Right ascension
Unknown
Apparent Declination
Unknown
Sunlit
N/A
Visualization observer readout
Local Sidereal Time
14:21:30
Azimuth
Unknown
Elevation
Unknown
Doppler factor
Unknown
Orbital elements
Apogee altitude
524.938 km
Perigee altitude
522.726 km
Semi-major axis
6,901.969 km
Eccentricity
0.00016
Inclination
53.0536°
RAAN
261.65°
Arg. of periapsis
121.5033°
True anomaly
148.79711°
Mean anomaly
148.7876°
Eccentric anomaly
148.79236°
Mean motion
3.78516 °/min
Orbital period
95.11 mins
BSTAR
0.0028981
Loading maneuver chart data...
Computing Atmospheric mass density...
Loading historical data...
Loading historical data...
Loading historical data...
Loading historical data...
Loading historical data...
Loading historical data...
Loading historical data...

Documentation

Showing up to 5 results
|